GFSNIL_con_3kmhel_000.txt.gz
Helicity
240 213 190 162 164 163 159 150 145 168 163 144 119 98 88 78 82 100 116 113 110 108
193 197 191 193 193 187 181 181 203 201 189 169 140 125 108 99 105 113 116 111 105 110
198 219 229 229 221 217 222 225 228 219 207 180 160 148 130 116 114 126 122 111 105 120
251 259 260 254 237 239 244 239 240 226 211 202 182 155 138 133 123 135 120 111 125 130
273 272 274 263 258 247 254 258 246 237 231 201 170 151 148 141 131 124 124 126 137 137
262 268 272 266 255 265 265 264 263 250 227 189 164 150 135 132 123 119 124 126 135 130
250 257 253 250 263 268 268 271 259 239 199 169 146 140 134 128 126 132 136 131 135 146
246 249 256 270 271 272 275 264 245 212 179 166 152 132 115 125 139 142 127 128 132 115
245 256 270 272 267 265 270 249 212 190 181 166 131 95 106 132 146 141 136 134 111 109
244 266 266 255 255 258 239 204 191 181 154 133 118 97 115 112 148 150 131 111 118 143
244 252 247 252 247 222 190 180 162 145 131 122 113 114 102 102 153 140 118 117 145 157
223 236 239 237 207 176 173 158 133 120 117 115 103 98 114 126 132 129 129 152 137 124
241 229 218 187 173 151 129 129 121 110 109 92 109 104 101 100 127 145 156 123 119 79
232 211 176 159 132 137 131 120 112 101 99 114 116 111 87 99 142 150 146 154 145 108

GFSNIL_con_3kmhel_003.txt.gz
Helicity
201 243 270 215 186 179 173 153 140 139 122 107 96 85 74 63 64 67 68 71 79 89
225 302 265 217 208 202 185 166 156 143 136 129 119 105 90 79 85 89 96 100 101 93
235 280 266 234 225 208 195 181 166 165 159 148 133 120 105 108 110 109 113 110 97 92
268 266 245 239 223 210 200 187 190 181 176 160 146 132 138 129 112 113 119 115 116 114
273 266 267 245 227 211 221 214 205 199 186 168 161 154 143 117 118 135 142 138 131 130
262 261 253 245 236 232 230 227 219 205 192 182 160 148 121 115 134 134 127 128 130 135
233 237 242 246 241 240 237 230 219 209 183 170 149 125 119 124 128 131 131 135 138 135
233 244 253 252 255 260 252 233 210 182 173 155 131 129 126 128 135 133 142 143 133 135
240 241 248 256 260 258 231 207 183 176 158 150 140 120 120 121 140 149 147 132 129 150
231 245 245 242 238 218 198 167 163 154 150 141 119 108 115 124 148 150 138 135 138 136
228 233 228 220 202 178 155 153 146 148 128 123 114 111 126 125 143 138 141 133 126 120
213 209 185 181 167 150 141 141 138 122 123 113 110 120 120 128 139 138 140 129 97 98
175 172 172 152 143 127 129 136 126 121 103 91 114 110 115 116 142 146 121 81 81 64
182 169 141 129 124 132 138 127 110 98 111 114 113 113 108 132 147 115 101 109 92 88

GFSNIL_con_3kmhel_006.txt.gz
Helicity
269 252 264 223 189 175 170 157 134 121 102 85 64 49 44 46 52 63 73 75 77 84
247 195 188 212 205 201 187 164 144 128 113 90 74 67 65 59 65 76 99 96 97 103
191 150 231 232 220 201 188 169 156 136 118 104 94 88 68 69 91 100 120 120 119 116
246 225 270 232 229 210 190 169 158 145 132 116 106 95 79 100 109 125 136 136 130 113
221 264 263 243 223 190 192 183 173 158 145 131 124 106 101 115 135 139 139 135 124 116
250 263 250 233 219 204 197 193 180 164 153 149 130 118 118 134 135 137 130 127 135 139
271 247 227 213 217 215 202 187 178 176 172 153 133 123 140 129 132 123 123 127 136 144
271 241 227 222 227 220 203 189 186 175 160 139 134 153 137 141 121 114 124 124 135 158
286 234 223 222 214 208 196 190 175 162 142 142 144 150 141 123 123 124 121 135 151 164
241 236 215 199 198 193 189 167 152 137 140 133 143 141 127 115 113 130 147 152 155 171
219 207 188 188 189 183 158 142 134 133 129 136 135 120 108 104 112 147 152 148 153 177
178 179 178 179 167 154 130 124 126 126 131 121 107 115 104 123 137 140 141 159 142 131
176 171 165 155 144 130 124 124 124 122 100 106 95 113 119 119 132 156 172 118 88 96
169 164 151 135 124 119 124 119 112 98 94 99 118 112 108 128 156 161 129 100 111 99

GFSNIL_con_3kmhel_009.txt.gz
Helicity
358 323 298 355 373 314 286 204 161 147 125 105 83 62 45 39 37 51 58 80 96 106
301 295 317 341 308 305 235 191 176 151 128 110 90 72 63 55 55 66 85 88 95 111
269 330 336 319 314 312 207 185 176 151 132 113 103 89 75 81 95 85 91 115 120 138
315 356 354 323 312 260 204 194 179 160 142 123 106 98 97 102 100 92 108 132 149 148
394 368 338 297 282 225 216 201 180 155 139 143 123 127 112 103 107 114 135 150 166 141
402 347 277 294 264 252 234 202 179 164 154 142 139 139 124 122 128 143 145 145 140 139
386 323 299 288 275 240 199 173 170 171 170 158 163 143 134 133 136 137 144 130 128 139
336 303 327 285 250 204 195 185 179 173 165 175 158 157 162 149 143 136 124 132 141 156
311 291 266 239 197 192 190 183 174 169 174 157 145 184 150 151 140 116 128 157 173 189
278 270 224 207 193 190 179 167 161 164 147 141 152 178 151 121 106 123 144 172 169 166
247 203 222 213 191 179 165 157 155 137 134 144 150 152 112 101 102 138 139 151 149 162
216 221 203 196 177 159 154 140 133 133 145 130 113 144 117 128 132 127 138 146 152 164
214 205 184 165 163 153 140 136 136 128 101 112 97 129 137 125 117 140 175 173 161 136
189 174 163 155 136 130 138 123 99 97 91 97 116 117 124 132 142 165 180 166 161 156

GFSNIL_con_3kmhel_012.txt.gz
Helicity
409 400 437 439 459 480 453 417 428 280 248 188 138 100 83 69 61 62 52 60 74 84
412 394 386 420 425 438 461 409 244 247 232 171 130 96 79 75 70 73 66 66 85 97
384 431 380 369 372 444 383 345 310 272 214 180 143 120 107 98 97 87 78 96 120 129
415 367 317 311 417 430 411 340 291 259 197 158 127 111 98 111 92 85 97 122 135 156
336 299 320 418 462 407 353 316 262 216 179 163 153 139 132 116 115 124 125 132 171 154
334 396 447 468 397 393 369 291 252 219 193 172 156 150 152 145 161 155 141 156 166 159
394 430 445 403 465 377 328 270 246 214 199 167 150 156 155 169 176 156 167 159 151 154
421 436 451 487 359 323 294 245 212 184 163 151 133 156 171 185 167 169 163 151 157 170
483 469 457 371 340 315 243 200 174 149 147 130 144 161 183 168 160 154 144 152 153 161
483 321 329 296 242 223 176 154 147 141 135 150 154 173 167 154 149 130 127 125 142 161
197 122 160 213 176 172 172 163 147 144 139 149 155 162 164 149 133 121 111 130 148 160
219 217 190 201 212 195 168 157 132 135 156 173 171 134 144 138 116 121 136 150 162 160
114 179 217 176 169 156 136 142 149 156 137 126 116 132 112 96 112 130 136 141 153 149
171 164 141 125 138 154 150 144 135 122 115 105 88 79 98 118 115 116 128 151 160 157

GFSNIL_con_3kmhel_015.txt.gz
Helicity
519 483 425 451 515 538 520 476 431 405 372 370 292 252 189 114 88 81 75 73 77 89
530 397 390 399 411 469 528 453 438 420 414 402 310 178 157 99 84 81 72 75 92 102
441 372 382 394 405 438 493 405 432 419 406 289 193 174 127 111 91 86 86 93 97 120
403 364 332 290 355 433 458 445 400 480 337 254 211 163 134 102 84 88 104 110 109 142
347 363 302 295 347 412 418 392 439 318 288 252 191 140 115 106 107 99 105 98 119 140
349 294 329 368 409 362 421 453 344 332 297 226 178 150 140 138 137 139 134 114 140 125
329 349 391 422 386 385 399 333 365 298 249 194 174 173 158 153 145 154 154 173 160 154
350 377 409 452 451 446 459 368 372 256 243 188 161 136 126 149 157 159 158 168 172 161
458 463 458 438 400 340 366 325 272 194 193 150 137 158 176 158 142 148 170 157 143 135
478 492 479 492 524 342 269 194 179 152 157 164 155 161 159 144 158 169 146 125 138 161
457 396 390 253 228 202 118 93 128 168 175 147 135 140 142 186 165 141 124 136 170 166
282 245 166 174 75 96 124 136 178 135 138 122 106 130 152 149 126 125 135 148 129 139
111 70 42 65 88 130 155 132 121 128 125 115 124 135 107 92 109 126 106 103 127 134
23 69 76 99 105 125 138 141 134 146 157 153 112 83 98 92 89 83 103 114 132 135

GFSNIL_con_3kmhel_018.txt.gz
Helicity
356 477 510 518 539 575 545 559 567 551 484 449 374 336 339 319 226 142 122 100 93 85
402 436 487 503 524 557 523 545 550 552 496 414 403 397 345 353 244 135 110 91 84 85
363 379 426 426 436 431 465 436 500 516 489 405 403 443 394 311 210 143 95 88 90 95
372 403 386 356 384 426 404 440 459 536 475 420 435 332 348 246 179 132 104 98 76 77
415 382 391 382 350 314 367 392 474 539 443 435 437 467 282 256 160 126 95 80 87 73
362 335 333 347 312 320 363 391 465 476 416 343 356 262 267 231 171 128 115 92 71 87
323 294 314 304 318 323 329 392 441 409 421 485 406 211 216 201 178 141 129 120 141 138
400 377 372 346 360 333 364 413 459 519 408 351 296 215 160 157 154 143 136 169 167 165
425 429 458 454 426 495 508 502 448 410 348 284 180 162 141 145 136 153 173 178 186 168
490 480 446 393 404 400 447 351 362 285 199 216 131 119 136 147 155 160 175 173 162 172
387 373 361 365 385 397 372 301 218 201 134 109 113 137 139 145 155 164 149 148 154 161
251 255 228 259 249 242 219 137 115 98 98 110 108 124 123 139 134 145 137 135 150 154
163 142 202 211 111 64 79 47 48 91 112 107 93 85 98 107 101 122 142 151 154 153
113 63 29 27 -4 43 63 84 115 134 131 132 115 108 100 96 100 106 133 142 139 148

GFSNIL_con_3kmhel_021.txt.gz
Helicity
215 280 313 355 421 417 444 454 470 485 526 492 475 463 415 392 316 360 325 266 211 148
165 234 268 286 356 381 439 512 527 550 598 520 495 524 477 426 331 371 323 340 207 133
138 208 261 325 347 387 467 437 538 592 571 491 473 490 512 448 305 393 354 309 225 143
162 202 286 321 357 388 447 476 426 441 443 420 497 513 558 452 320 337 291 225 193 145
135 226 258 288 354 369 381 407 383 386 408 500 555 565 601 483 509 232 164 151 192 121
218 230 280 307 321 349 332 338 365 383 476 544 585 589 539 350 288 161 271 160 128 101
220 239 305 318 299 329 328 359 376 389 514 562 582 520 473 392 340 208 213 190 121 118
229 262 290 315 326 354 375 395 431 491 559 561 505 436 363 267 208 191 182 122 123 134
241 313 353 378 416 410 402 400 433 482 504 486 446 400 294 268 256 167 122 123 140 143
270 367 457 456 458 354 389 401 443 447 419 406 382 247 203 195 149 126 118 119 141 179
352 412 349 356 285 304 357 349 320 358 335 270 194 139 95 110 113 108 133 148 154 158
123 190 169 182 245 215 265 238 178 139 122 81 62 42 64 95 120 141 144 127 128 135
136 132 168 183 155 146 129 155 77 77 64 37 25 65 87 93 116 119 121 140 159 152
71 69 77 69 72 46 55 60 32 90 94 106 99 108 101 88 103 115 139 151 154 151

GFSNIL_con_3kmhel_024.txt.gz
Helicity
58 135 208 265 268 300 336 372 410 399 390 401 454 448 440 393 392 360 267 317 302 291
70 79 108 158 231 274 286 333 390 428 421 431 459 459 505 456 442 426 518 275 338 309
72 71 107 146 172 217 270 321 334 388 449 440 444 494 538 530 462 500 545 514 314 342
66 67 101 138 185 216 259 279 289 335 385 429 465 466 515 535 518 488 479 484 327 382
48 62 63 117 162 226 243 251 276 318 343 381 439 477 543 577 552 510 461 441 342 350
65 109 126 117 156 201 234 224 250 270 321 392 467 575 590 542 536 482 444 454 318 301
74 125 160 175 183 221 239 233 255 340 417 485 527 628 646 619 487 494 437 424 410 303
83 124 208 231 255 283 319 360 420 452 463 443 480 368 516 450 399 404 422 381 265 238
186 217 262 299 323 362 395 402 393 352 385 411 456 412 356 360 361 343 291 268 178 103
149 218 241 247 265 280 303 321 337 308 364 348 365 304 302 290 253 194 146 80 91 122
97 161 177 191 220 222 216 293 259 274 247 235 219 205 203 161 123 74 83 89 108 134
-10 108 140 190 215 118 155 245 211 203 191 176 131 86 74 49 61 105 108 99 94 89
43 78 140 184 134 142 140 132 138 118 109 92 70 58 70 90 102 109 103 103 112 108
55 69 50 52 44 18 48 57 59 55 46 33 19 58 80 98 92 101 116 108 113 120

GFSNIL_con_3kmhel_027.txt.gz
Helicity
114 128 109 105 153 200 220 216 179 291 329 342 340 366 383 371 334 342 317 282 306 322
146 128 127 112 111 129 156 202 194 192 253 295 353 366 385 395 377 388 384 345 327 358
203 141 107 101 92 80 94 118 151 154 182 240 271 326 360 378 409 426 451 478 486 496
192 177 118 87 64 65 87 101 113 123 153 188 229 270 346 424 396 451 495 527 542 497
163 120 111 97 81 62 77 98 105 114 139 154 193 241 307 363 439 517 571 624 648 477
157 144 102 96 85 60 77 107 137 112 134 175 209 265 318 407 491 532 597 553 522 308
163 143 92 88 100 89 133 146 181 223 225 243 330 400 449 493 564 566 555 536 528 527
155 82 124 157 239 204 215 236 276 321 301 301 328 335 449 541 618 511 400 327 274 313
133 39 138 203 218 204 237 230 238 250 269 314 356 346 387 361 400 372 294 236 215 207
-40 68 125 133 156 155 170 188 216 245 295 344 317 228 233 213 231 219 209 190 158 142
-4 28 76 124 141 146 152 161 191 242 244 266 191 148 223 241 225 184 155 135 116 101
-1 21 27 76 87 108 176 191 212 253 211 191 203 133 125 102 89 92 60 61 101 126
41 63 64 95 91 151 211 164 175 201 110 79 58 36 49 34 59 104 120 112 101 85
-9 5 9 16 10 31 50 53 63 55 45 45 30 8 40 61 72 76 85 102 104 95

GFSNIL_con_3kmhel_030.txt.gz
Helicity
159 152 142 133 152 163 158 139 127 132 154 186 185 179 211 273 323 371 369 308 355 345
231 225 187 156 140 136 124 144 131 111 110 138 174 187 209 250 237 270 306 332 382 370
235 220 207 175 163 134 105 84 85 86 106 109 146 181 204 215 231 279 355 412 419 484
222 217 199 194 168 155 126 101 81 73 69 78 104 140 201 209 212 274 369 471 616 313
171 195 214 190 146 132 119 97 75 67 67 80 90 92 117 216 254 261 306 351 547 663
147 175 157 141 139 95 87 65 55 56 69 85 89 116 133 166 257 346 368 392 440 510
184 193 176 105 131 94 88 96 61 71 112 122 130 158 216 240 254 312 364 388 380 363
180 212 189 131 96 83 134 158 162 171 179 184 173 187 229 269 312 359 367 357 307 290
50 65 48 21 80 170 199 202 192 172 172 157 164 155 187 261 290 287 270 227 258 263
17 11 9 43 58 106 113 133 160 185 159 156 142 161 183 205 223 237 235 218 193 186
18 40 46 44 58 97 142 156 158 198 189 197 182 195 206 264 227 188 202 160 129 110
43 58 70 75 67 59 141 169 188 232 244 240 209 210 174 196 171 155 68 47 70 71
59 63 95 72 92 114 144 169 175 161 135 91 117 47 30 15 11 28 44 60 79 104
-22 -22 -22 -6 0 16 37 47 50 39 7 -3 3 24 48 53 50 59 72 96 110 140

GFSNIL_con_3kmhel_033.txt.gz
Helicity
195 175 164 168 180 208 210 197 165 153 145 153 172 205 208 242 287 285 306 307 395 397
202 236 233 203 181 191 183 179 138 135 136 125 132 135 174 256 303 314 292 295 341 343
177 175 181 193 201 165 161 158 154 150 144 142 130 140 173 226 283 263 292 315 377 426
133 130 140 149 161 183 180 167 140 128 131 142 130 130 152 204 245 283 353 351 371 348
124 145 153 189 231 240 207 173 140 101 99 81 93 112 114 170 215 242 251 279 315 336
156 157 163 188 193 193 182 148 103 57 39 26 7 45 125 161 163 166 186 181 215 256
111 126 165 201 230 207 164 135 157 221 213 190 94 117 136 165 178 174 180 184 191 178
69 77 82 81 123 158 157 92 67 132 181 177 218 160 112 182 161 203 207 227 203 196
69 53 40 4 35 72 61 63 142 139 149 165 132 92 109 144 170 211 194 197 195 192
49 54 49 60 82 100 120 106 119 119 119 131 135 135 134 172 216 212 188 160 133 123
49 51 52 78 99 112 123 134 151 184 220 200 149 144 152 199 204 186 154 132 138 103
44 53 57 86 98 85 97 107 112 88 109 123 133 158 142 156 167 126 116 97 110 81
-18 -9 16 45 79 90 83 87 62 68 48 62 52 74 92 72 61 37 31 42 45 71
-18 -10 -9 -8 -9 -2 2 5 1 -1 6 17 37 37 55 54 17 0 1 19 60 106

GFSNIL_con_3kmhel_036.txt.gz
Helicity
213 189 186 196 196 166 176 190 187 162 160 143 143 153 170 212 242 301 312 325 406 375
201 233 220 195 192 230 221 234 219 197 196 149 154 155 159 165 172 227 270 319 335 387
186 186 169 164 174 204 226 207 219 184 165 161 149 141 152 154 165 194 286 333 333 376
138 145 150 161 175 229 254 266 209 185 168 169 172 171 168 148 132 159 205 256 265 298
122 140 181 206 200 184 184 207 215 207 185 170 146 130 127 115 108 91 137 184 221 214
123 145 179 178 222 229 237 222 236 234 225 186 161 143 135 91 54 48 104 150 164 171
111 112 119 121 138 157 182 182 157 144 119 107 124 136 160 198 200 97 178 189 168 158
74 65 78 91 93 86 88 79 76 72 75 91 119 143 186 201 190 166 191 195 177 169
48 65 83 84 81 86 83 84 91 98 105 113 92 104 125 154 145 144 165 221 233 219
47 67 65 71 86 93 89 88 114 114 104 93 80 94 107 137 121 121 143 161 137 116
41 52 61 79 93 98 92 100 87 86 107 116 101 101 93 120 135 168 162 177 119 114
1 14 29 61 63 65 76 82 86 78 91 86 66 81 73 70 71 73 89 90 78 70
-13 -6 -0 -7 -14 -15 -14 -12 -17 -13 -7 29 22 48 67 73 65 100 70 77 79 105
-8 -3 -8 -9 -7 -3 4 -8 -9 4 15 31 47 63 92 102 90 82 77 79 70 67

GFSNIL_con_3kmhel_039.txt.gz
Helicity
210 199 193 163 147 155 166 176 210 197 183 163 135 123 122 135 147 194 218 243 303 325
201 231 215 198 178 176 214 217 204 218 220 205 174 152 145 151 156 162 185 199 214 263
165 200 219 200 194 206 231 265 245 189 171 170 167 174 167 155 150 156 179 195 227 286
130 147 153 168 179 188 190 209 195 164 164 175 166 158 157 166 169 167 154 148 166 243
116 122 133 144 161 167 173 177 166 168 181 182 177 181 167 151 140 148 151 168 172 136
121 124 133 144 152 137 149 159 175 157 157 144 130 129 136 139 138 144 118 131 135 134
114 126 115 109 119 114 116 123 120 122 104 81 72 75 91 106 100 100 158 141 126 122
98 95 108 121 113 96 94 99 93 80 64 51 52 54 78 96 97 109 129 89 59 75
77 96 103 102 84 92 94 83 91 97 82 76 57 92 92 99 112 102 102 105 149 168
70 75 73 66 66 81 98 115 126 115 98 99 97 121 108 129 96 74 78 98 105 140
39 40 34 45 56 72 80 79 70 83 81 47 51 69 76 93 86 100 95 86 93 93
16 28 22 32 24 16 22 19 6 -15 3 25 25 44 41 56 71 84 81 81 83 85
1 9 15 12 1 -9 -17 -24 -24 7 2 26 21 54 76 79 73 88 98 97 118 132
6 15 14 8 2 -4 -16 -11 -8 2 2 9 32 52 87 94 89 89 96 103 104 106

GFSNIL_con_3kmhel_042.txt.gz
Helicity
155 144 150 147 146 142 141 156 179 208 212 220 193 159 124 126 124 120 127 141 184 207
147 165 167 179 152 143 154 160 175 212 197 191 193 184 163 137 140 136 124 117 136 168
136 153 163 162 186 185 187 191 208 186 168 164 171 183 184 182 179 160 150 130 101 134
119 135 145 153 163 163 159 177 173 175 149 151 166 177 173 171 160 151 153 152 147 159
115 121 132 148 150 148 136 155 170 160 147 151 154 147 143 135 127 111 114 126 157 149
125 126 133 133 146 150 162 173 170 164 161 147 127 108 100 87 101 106 106 116 119 128
132 122 111 127 143 156 151 151 151 134 121 107 100 100 102 108 108 118 126 132 126 106
105 101 106 133 138 129 131 128 118 119 123 125 106 88 101 110 116 108 91 81 86 72
92 102 119 127 129 138 131 141 141 145 110 99 88 107 100 103 102 112 95 102 120 130
75 88 88 91 108 131 143 131 124 108 88 88 76 72 64 62 48 70 84 92 99 118
39 37 42 61 76 82 80 85 78 81 44 23 23 28 33 59 59 69 71 87 89 98
12 16 11 21 32 35 41 52 47 9 43 33 23 35 44 44 45 54 67 80 86 99
3 4 16 25 19 11 14 16 -1 41 41 38 23 19 41 40 32 47 56 68 84 96
-8 12 36 31 18 12 17 21 24 30 20 22 27 27 47 52 43 50 59 67 74 79

GFSNIL_con_3kmhel_045.txt.gz
Helicity
118 105 100 98 99 103 105 115 135 174 192 197 222 239 249 197 166 150 123 112 133 148
117 129 130 138 131 126 139 152 181 190 197 192 184 190 195 205 212 179 187 178 159 146
113 126 131 136 143 142 149 163 185 195 180 151 156 165 183 187 184 193 187 177 179 175
111 123 127 128 141 155 152 163 171 171 158 151 168 178 169 180 175 175 169 153 141 145
120 121 122 131 134 136 149 153 159 166 175 186 189 182 184 179 164 149 128 107 107 119
127 126 127 124 120 136 150 177 204 202 197 185 176 169 160 149 139 129 117 113 106 92
130 127 123 129 126 129 154 173 178 176 161 150 143 133 122 119 137 149 155 140 124 124
108 110 113 112 123 133 143 150 146 151 150 138 133 116 118 136 147 145 158 153 163 170
94 98 112 112 131 132 124 119 129 139 133 139 124 153 156 131 106 88 82 79 81 88
73 90 96 96 103 108 104 109 124 120 110 96 66 56 47 34 33 42 50 48 43 50
52 53 57 66 74 94 87 100 93 92 75 48 45 51 49 49 37 49 55 55 54 61
17 30 40 50 49 51 65 72 68 37 32 47 38 49 52 50 46 56 62 67 67 72
26 31 40 38 37 30 21 32 15 12 43 47 31 42 57 49 41 52 57 68 81 90
41 50 48 53 36 14 14 27 24 27 33 33 37 36 51 47 36 44 53 68 80 87

GFSNIL_con_3kmhel_048.txt.gz
Helicity
117 103 100 100 99 95 95 100 117 139 181 211 212 216 226 237 249 268 245 223 201 178
91 99 99 106 102 101 114 125 152 171 187 207 217 215 223 243 266 277 262 242 219 215
75 91 103 115 137 140 140 144 153 170 178 182 181 172 169 180 201 223 205 193 198 181
81 103 123 138 149 150 141 142 144 150 163 169 166 160 164 175 163 155 160 157 148 129
98 124 140 148 147 138 144 148 148 157 174 186 183 186 184 182 191 189 189 177 162 148
112 124 130 132 126 132 133 163 190 196 199 187 173 168 171 169 177 188 189 192 182 166
116 122 118 116 117 123 131 148 168 171 160 147 136 136 139 152 167 173 175 175 170 155
107 112 109 103 98 105 114 129 126 127 118 114 115 108 119 124 128 128 137 145 137 150
98 100 101 92 100 101 111 122 120 128 114 116 100 114 110 85 71 61 47 64 77 79
79 90 97 87 106 107 98 92 106 109 93 91 61 51 49 50 38 40 48 62 60 67
68 73 75 77 76 79 68 74 73 76 78 65 46 56 53 57 43 51 55 54 60 75
46 48 54 59 57 51 53 53 65 55 39 41 33 56 57 45 36 47 52 58 66 72
51 51 54 47 52 43 28 38 17 21 28 40 43 48 49 39 34 53 56 59 67 74
54 55 55 65 51 45 31 24 30 26 40 38 38 35 56 57 47 45 45 54 60 64

GFSNIL_con_3kmhel_051.txt.gz
Helicity
147 131 123 120 112 105 104 104 119 129 144 163 176 177 172 197 226 233 257 261 223 191
127 118 110 112 107 107 113 117 126 141 161 177 188 192 193 201 223 232 223 203 185 187
89 88 94 105 120 127 134 144 151 157 164 174 182 176 165 168 171 179 186 191 198 183
80 93 107 121 136 150 158 171 170 167 164 166 161 166 165 178 180 191 196 198 189 191
79 95 115 138 159 169 173 172 168 163 163 162 166 175 179 182 183 179 177 166 168 162
90 101 125 144 157 166 147 151 171 176 181 179 168 168 168 165 164 159 156 149 140 134
87 105 126 138 138 134 131 129 165 182 165 153 146 134 121 123 130 136 133 137 135 128
91 109 121 126 119 118 125 116 116 129 130 112 94 89 97 110 120 121 118 107 94 109
100 105 113 113 108 107 110 119 113 110 104 102 87 93 87 56 42 43 49 70 78 87
78 88 93 97 106 113 100 104 104 94 86 91 70 51 53 62 53 58 66 68 72 83
69 71 77 79 89 92 81 74 79 93 91 74 55 54 52 59 47 57 61 67 67 78
67 64 48 55 59 61 63 73 79 76 60 53 44 41 54 50 44 46 60 58 57 63
56 46 43 41 45 45 47 51 49 47 40 28 19 48 49 43 37 45 45 46 53 65
59 54 43 51 47 44 41 32 49 41 23 25 49 40 43 44 40 42 42 46 50 53

GFSNIL_con_3kmhel_054.txt.gz
Helicity
149 135 130 137 137 131 133 134 138 146 143 150 157 159 161 165 170 191 205 202 213 233
136 133 128 135 135 129 128 131 129 136 145 154 165 171 173 183 189 200 224 233 213 196
133 130 123 117 119 123 127 133 135 138 145 154 165 170 167 162 170 172 181 174 164 165
97 90 91 98 110 127 133 146 150 156 160 165 164 161 157 165 175 170 166 168 154 161
74 72 79 98 113 127 136 149 155 161 163 166 167 164 161 149 157 146 143 140 136 128
60 61 77 101 121 140 149 142 134 144 152 160 169 170 172 166 151 142 136 127 129 123
57 65 81 104 128 143 145 133 138 143 165 177 178 160 147 133 118 124 130 132 123 108
63 86 111 122 129 132 131 131 138 151 147 137 120 108 99 105 104 102 108 107 91 77
77 101 111 117 126 130 122 118 124 129 129 115 98 93 89 78 70 56 48 48 51 59
78 94 96 104 111 121 119 114 124 113 105 97 85 80 68 56 44 49 47 49 51 59
91 100 105 110 108 109 106 105 105 83 79 73 69 48 45 47 54 64 64 68 67 61
89 99 102 97 92 89 91 92 95 72 72 67 49 41 37 49 53 63 57 56 63 58
86 81 84 71 77 70 71 76 58 56 56 39 43 30 40 47 52 42 46 52 50 57
78 67 65 87 66 67 61 42 33 38 37 30 31 37 38 44 36 40 48 50 48 51

GFSNIL_con_3kmhel_057.txt.gz
Helicity
151 134 126 122 126 117 126 143 156 144 142 144 141 137 165 157 179 167 166 171 226 226
144 143 137 128 131 133 142 145 143 137 138 138 138 147 149 180 182 183 196 219 230 234
146 138 131 127 124 130 134 131 133 136 145 151 154 163 162 159 157 166 171 169 181 193
139 132 127 111 104 107 122 122 128 142 147 161 167 164 152 157 145 146 147 160 161 168
115 98 79 73 85 103 107 127 143 139 139 151 169 178 165 142 134 135 143 157 153 147
95 82 71 79 89 98 109 123 131 145 151 152 167 181 190 176 171 177 181 162 141 128
89 77 79 92 100 118 131 130 147 155 156 179 192 201 190 188 182 178 171 163 148 137
79 83 93 110 118 129 140 150 149 156 177 175 165 154 149 142 129 121 130 139 146 132
80 99 105 105 103 105 122 141 147 153 148 149 135 117 114 103 101 97 101 106 89 69
89 92 95 103 103 108 113 131 134 138 138 136 117 105 94 96 86 78 50 47 46 54
113 101 113 114 111 124 119 123 124 122 126 104 93 98 96 71 70 75 62 52 44 40
102 109 122 115 114 124 133 158 146 124 119 105 88 76 64 59 42 49 42 41 57 71
102 104 120 125 138 125 115 129 106 106 94 83 73 52 52 37 40 38 48 47 61 62
116 115 120 144 136 125 125 105 92 78 72 58 30 32 32 35 44 51 52 59 52 61

GFSNIL_con_3kmhel_060.txt.gz
Helicity
230 204 198 172 175 162 160 175 186 157 141 137 152 154 172 163 160 155 157 143 151 153
202 210 151 221 167 143 148 149 158 153 146 154 155 163 138 150 160 164 167 170 171 187
154 163 154 115 100 114 130 145 155 160 162 157 156 159 167 165 151 152 164 170 183 198
115 89 69 68 82 102 144 134 140 139 141 148 159 170 160 175 178 166 165 173 181 187
227 209 153 92 94 149 138 144 138 144 135 144 166 179 204 169 165 174 163 158 187 186
238 221 187 148 144 128 117 139 140 136 153 183 198 230 263 245 226 249 243 224 198 185
175 156 147 133 131 151 163 160 162 173 176 195 201 225 244 262 256 261 260 253 221 197
139 136 144 178 203 189 175 153 134 134 162 158 149 180 203 208 204 201 190 183 168 131
161 154 151 156 150 145 133 113 103 110 119 133 149 157 171 175 160 140 131 130 130 133
146 160 133 134 114 126 113 114 109 121 132 154 161 153 163 143 146 124 112 106 90 77
174 167 159 141 126 140 128 127 124 131 154 156 141 114 107 125 109 94 67 60 43 41
217 203 173 152 147 150 141 139 150 144 137 132 122 84 82 85 79 57 53 47 71 65
218 189 156 142 159 161 151 143 144 139 112 91 81 65 50 46 57 54 45 55 62 65
203 177 149 154 168 176 157 140 124 109 95 88 63 53 36 38 56 50 51 51 47 47

GFSNIL_con_3kmhel_063.txt.gz
Helicity
244 232 235 272 283 269 171 197 145 147 144 131 142 155 159 172 167 162 157 147 145 138
201 210 203 201 266 203 176 180 166 124 128 136 137 147 151 161 153 162 162 164 164 176
176 173 145 159 162 132 114 88 84 96 105 129 144 139 146 154 146 156 166 169 170 180
239 315 316 222 135 98 96 93 97 81 99 123 139 157 161 138 161 174 162 178 174 185
273 334 318 295 205 186 130 103 113 133 78 142 130 150 163 144 153 166 180 182 206 186
220 230 210 203 208 174 168 170 125 111 114 134 157 163 185 200 198 216 231 220 201 201
175 180 188 175 172 186 158 134 135 144 137 132 142 148 178 219 244 258 261 250 232 203
152 155 165 181 178 163 150 143 138 131 130 127 123 122 144 196 205 211 232 218 204 190
137 140 147 157 160 156 149 149 142 129 125 111 132 120 130 177 201 188 171 186 183 164
162 163 159 157 155 144 147 150 136 133 132 138 135 132 138 135 157 158 143 119 119 122
172 167 164 157 157 158 163 145 135 124 135 146 142 137 147 138 131 123 109 92 79 60
198 183 168 163 171 166 152 147 141 131 149 145 124 101 95 111 109 90 72 50 43 41
209 205 185 174 176 177 169 156 164 163 136 106 116 65 66 76 78 64 54 52 42 45
213 194 171 166 180 175 178 167 147 141 124 109 94 61 52 46 54 44 49 45 43 49

GFSNIL_con_3kmhel_066.txt.gz
Helicity
222 265 242 221 219 214 179 177 194 226 206 122 166 112 114 128 139 149 152 141 146 148
174 215 234 196 183 172 166 149 129 123 128 136 115 120 136 126 124 144 144 138 143 148
208 194 167 140 113 96 150 200 226 176 144 149 135 124 131 121 126 124 131 145 141 151
223 291 233 227 288 335 303 228 157 173 132 117 140 106 78 92 106 130 137 138 144 158
177 216 228 225 213 234 233 223 128 126 148 146 135 137 110 25 87 133 137 147 154 162
204 222 205 225 218 192 183 146 143 139 151 111 114 129 146 153 154 160 164 162 168 164
188 192 192 183 165 156 153 152 157 145 122 131 135 137 142 134 156 185 210 214 215 206
150 162 171 167 158 158 150 128 116 125 134 123 113 109 107 100 111 165 197 207 203 208
131 141 146 151 152 150 142 132 125 120 118 113 108 94 81 105 134 163 182 192 191 165
137 133 136 141 146 135 119 117 112 116 119 115 108 84 84 108 138 148 150 161 162 156
161 165 168 165 147 133 119 109 126 125 119 116 101 105 131 133 136 144 134 116 111 112
194 194 185 171 154 135 121 127 134 147 137 112 102 93 109 128 129 120 100 83 68 66
207 202 187 173 165 157 135 114 136 151 140 110 110 77 97 109 116 99 79 53 45 31
195 195 184 175 181 148 143 136 134 128 138 124 111 84 76 87 92 69 63 48 37 42

GFSNIL_con_3kmhel_069.txt.gz
Helicity
88 148 195 255 264 228 180 228 181 189 113 101 113 121 129 145 129 106 108 100 132 131
79 84 138 168 177 190 188 163 135 138 119 118 121 192 148 127 109 109 108 103 110 134
105 137 146 169 169 160 136 163 168 177 213 185 153 150 120 97 83 100 77 77 95 146
100 131 153 205 217 209 170 169 207 182 159 140 128 143 126 134 120 117 109 136 94 140
110 120 129 168 204 215 211 198 179 171 146 126 128 132 125 143 142 133 133 123 114 131
105 120 134 158 184 190 194 193 199 181 151 142 126 129 140 121 109 116 132 139 142 155
111 125 143 170 187 202 210 203 193 170 146 118 119 114 104 106 112 125 138 162 178 175
129 133 139 155 172 192 190 182 163 140 118 103 96 92 91 93 90 94 114 148 190 199
129 150 141 147 161 171 169 154 132 106 91 90 88 79 74 72 73 93 115 133 165 187
146 152 153 145 151 144 132 129 109 99 95 87 87 76 72 58 84 99 112 127 150 175
175 172 177 166 152 151 145 115 106 92 102 114 105 101 107 121 124 132 129 122 122 123
187 191 201 177 164 154 147 125 98 104 119 118 117 107 106 124 126 133 118 107 99 89
207 213 211 214 183 172 156 119 98 92 103 101 114 92 94 107 134 113 95 83 70 41
207 215 230 231 223 187 152 137 108 92 94 110 116 100 75 102 119 103 98 69 63 43

GFSNIL_con_3kmhel_072.txt.gz
Helicity
66 61 79 102 164 184 200 188 173 135 92 113 116 126 107 121 118 115 113 114 119 117
113 97 80 70 116 164 191 189 179 129 156 146 113 133 146 114 112 135 111 93 83 110
92 86 84 78 97 136 166 159 169 156 178 130 127 157 140 108 92 98 92 101 117 110
82 91 78 87 119 147 162 179 140 216 183 143 118 139 124 106 120 114 116 134 128 115
69 87 99 94 104 124 149 163 162 157 161 155 156 144 124 134 140 126 111 106 122 111
50 65 87 113 133 142 172 184 190 173 160 162 166 134 155 150 125 115 103 104 113 113
73 85 99 127 152 171 190 198 196 201 191 186 177 159 146 125 113 103 105 108 114 114
80 93 116 129 156 186 189 188 179 180 189 172 146 120 106 93 91 87 90 103 117 120
77 96 102 125 142 170 194 196 190 176 155 136 115 87 85 86 86 84 88 93 111 127
75 108 124 144 163 160 169 178 158 147 127 103 92 78 74 78 96 89 100 108 123 143
74 104 153 167 170 181 188 155 144 114 96 98 85 84 96 100 117 109 113 118 127 135
65 108 165 180 196 210 206 184 153 127 103 94 97 94 98 135 120 118 113 122 127 124
67 98 140 174 221 247 231 195 168 130 97 71 98 86 86 120 114 105 122 118 108 97
74 82 128 185 237 247 233 205 174 141 110 96 83 94 70 94 104 116 129 107 97 95

GFSNIL_con_3kmhel_075.txt.gz
Helicity
89 76 75 76 89 123 163 185 213 235 191 141 130 81 90 92 134 102 112 102 103 111
146 139 128 113 101 112 141 172 183 165 176 206 215 193 148 130 138 114 118 120 121 112
140 127 101 86 76 79 102 142 201 167 188 138 126 107 111 117 122 114 103 96 103 114
77 87 97 92 83 87 109 154 217 187 176 144 147 149 148 120 118 105 93 113 125 125
55 56 59 72 80 84 100 136 164 175 159 142 143 143 157 152 149 123 126 126 132 123
45 44 55 72 88 108 136 159 195 204 188 181 160 147 142 140 134 147 136 137 132 113
89 89 83 83 97 122 149 178 193 189 177 176 169 166 161 159 163 147 136 130 118 120
91 82 89 98 110 130 146 169 196 219 224 218 201 187 178 170 146 135 122 118 117 120
61 64 72 98 110 124 145 166 181 187 196 200 203 176 153 142 132 113 103 98 104 112
67 61 63 94 122 131 142 172 174 180 183 171 160 121 104 94 104 110 97 98 112 123
71 73 70 79 107 136 165 154 164 157 156 160 141 107 102 101 106 97 95 106 117 127
79 92 83 82 96 147 160 153 169 171 148 134 126 105 103 130 120 111 104 125 138 145
57 60 80 83 102 157 179 181 172 167 142 109 118 75 83 128 133 127 124 126 140 133
78 57 57 71 96 148 177 181 166 155 152 125 106 93 82 108 136 121 121 117 124 120

GFSNIL_con_3kmhel_078.txt.gz
Helicity
154 120 90 74 100 88 131 144 171 190 187 207 203 184 191 149 113 205 161 87 91 90
169 144 119 99 96 112 119 122 147 173 183 201 177 186 186 219 217 186 178 150 112 88
123 134 115 105 116 113 107 115 131 195 233 223 193 174 174 134 119 123 91 111 104 96
99 99 101 101 105 104 110 114 141 207 227 198 164 135 104 98 104 101 110 104 92 98
65 64 70 75 78 80 85 99 133 190 212 180 148 120 118 125 123 112 115 116 122 115
91 90 82 71 67 68 68 76 98 142 185 181 166 154 140 133 136 135 121 128 117 118
96 101 98 102 101 100 99 100 100 115 152 186 178 172 167 167 153 157 160 154 144 137
85 88 88 84 90 100 110 124 131 134 140 159 170 175 178 187 178 161 153 155 136 131
72 87 95 84 77 90 104 119 145 150 137 145 170 170 171 173 170 161 145 127 120 123
72 74 85 89 72 78 95 117 123 136 154 139 128 130 142 155 168 157 146 138 126 129
78 89 92 82 79 77 96 111 122 123 128 142 136 119 123 125 135 127 112 105 105 115
95 94 93 92 92 81 81 103 124 129 130 130 133 108 106 110 114 107 99 99 98 118
83 92 105 102 86 80 74 89 128 163 149 131 131 97 85 113 133 108 105 99 99 100
49 59 66 76 89 82 76 87 116 135 162 155 120 102 73 68 141 107 100 103 113 121

GFSNIL_con_3kmhel_081.txt.gz
Helicity
160 152 108 55 38 26 35 22 59 30 48 75 38 146 184 196 199 174 164 171 208 220
144 138 137 121 121 84 69 90 121 145 134 146 187 208 232 239 223 204 179 125 134 127
97 112 121 117 106 92 99 105 101 113 154 208 215 231 233 198 160 201 157 145 137 128
96 91 92 91 96 96 104 105 115 133 177 207 253 229 194 174 172 153 133 110 90 100
76 75 70 67 71 79 74 80 89 123 161 179 193 212 176 160 141 126 112 96 115 115
81 78 76 75 73 71 70 69 67 92 137 181 189 160 152 136 122 115 119 124 129 128
88 93 89 82 80 86 91 87 89 91 109 141 168 181 180 162 148 128 136 142 133 137
74 76 77 86 92 88 89 99 117 122 139 144 163 165 178 194 183 165 159 159 164 167
97 106 98 88 82 76 82 97 106 116 135 153 177 179 162 170 170 164 156 167 159 163
92 98 101 108 111 106 92 95 102 115 122 127 138 145 139 160 176 171 182 182 168 145
82 85 92 92 100 109 107 94 104 115 117 128 140 132 112 129 179 166 155 157 148 130
45 52 63 74 82 88 87 93 96 109 122 138 153 136 114 133 157 181 155 132 112 113
42 36 44 47 51 54 67 76 89 99 114 127 156 141 114 145 188 170 148 113 106 96
45 38 34 31 39 41 43 43 62 78 108 110 128 139 101 108 171 167 145 114 136 130

GFSNIL_con_3kmhel_084.txt.gz
Helicity
71 49 -17 56 23 6 13 50 33 27 16 77 102 65 141 111 140 122 143 184 144 145
109 125 100 111 83 66 65 24 9 18 34 72 54 83 144 168 167 139 163 167 159 153
71 80 99 94 100 93 76 57 50 51 57 70 100 155 165 179 180 189 183 154 176 139
84 81 79 76 75 70 70 73 67 61 58 84 111 160 171 168 171 168 143 136 136 127
60 67 65 65 63 66 67 60 50 54 57 78 116 148 173 189 166 157 152 162 142 104
70 78 77 78 78 75 72 66 61 60 61 68 94 128 155 164 156 144 145 142 131 120
81 82 82 89 89 93 89 83 79 68 74 83 102 129 148 152 141 146 146 134 123 116
84 88 91 93 91 99 103 104 104 100 89 86 110 135 141 157 165 171 164 151 153 151
69 78 82 81 85 95 100 106 107 104 107 104 115 103 109 137 150 149 171 189 185 175
52 54 58 65 73 83 91 103 102 99 108 115 122 112 111 122 159 166 153 166 186 189
74 71 66 68 73 70 67 79 92 98 95 98 110 96 107 109 157 175 178 170 156 157
50 61 69 78 84 86 88 83 73 73 84 91 93 92 105 130 158 177 182 196 190 180
51 57 61 47 44 49 66 72 73 72 71 78 94 90 96 124 185 176 190 193 182 130
66 60 47 47 54 44 40 46 54 67 81 64 89 87 74 90 166 169 179 191 180 164

GFSNIL_con_3kmhel_087.txt.gz
Helicity
25 29 78 -10 -26 8 -34 -21 7 33 27 27 61 39 68 55 114 128 132 142 220 205
52 65 45 51 39 2 13 21 23 22 18 60 83 91 126 117 107 109 122 125 126 146
57 54 63 73 81 52 46 53 45 64 49 56 62 88 98 98 110 132 128 151 157 202
74 80 84 81 70 57 53 55 56 51 59 61 51 50 71 91 145 134 143 166 158 159
50 59 69 75 80 77 76 71 66 63 47 42 43 57 87 107 125 138 142 151 158 115
59 65 67 71 73 72 71 77 80 80 74 66 53 50 66 93 128 142 145 153 145 129
45 47 55 60 69 74 83 86 94 90 86 91 100 91 83 93 102 111 124 150 115 139
85 88 78 82 93 98 96 105 103 97 100 103 97 101 100 102 106 113 117 142 137 151
91 101 105 99 106 102 106 104 109 126 114 107 99 96 96 119 137 127 108 147 111 150
88 91 92 92 82 82 92 102 113 129 127 123 112 110 96 93 132 147 158 160 143 169
84 88 87 85 82 74 79 87 98 109 116 115 112 144 132 91 121 137 141 149 145 154
88 83 79 79 74 73 76 78 75 84 100 109 109 121 132 128 142 140 137 150 163 171
64 69 79 72 73 75 70 65 68 79 85 83 94 105 115 122 137 149 160 143 155 128
40 47 38 43 44 46 52 72 89 97 84 96 97 111 123 131 107 129 147 155 161 180

GFSNIL_con_3kmhel_090.txt.gz
Helicity
74 137 85 65 69 9 92 83 64 54 74 117 112 156 124 147 140 209 166 99 181 153
60 38 2 145 87 36 90 156 25 -33 14 40 58 64 78 73 78 99 113 80 98 108
52 58 55 53 27 11 -1 24 53 60 48 58 55 69 63 68 78 89 98 105 103 118
54 61 69 71 75 72 61 62 58 49 53 57 65 75 73 87 94 92 95 133 135 138
25 36 56 64 61 59 64 76 82 83 76 81 85 90 85 81 91 91 88 115 146 121
45 52 60 62 69 84 95 99 99 86 77 68 67 72 82 80 80 98 113 126 138 139
45 56 54 56 78 88 81 82 99 108 104 106 97 81 74 82 92 89 103 123 144 133
58 53 61 79 86 85 83 89 95 112 132 135 128 132 134 115 101 100 118 118 122 126
83 83 87 84 84 69 69 73 75 107 127 136 133 183 199 170 136 131 118 122 153 159
92 100 104 101 97 91 72 55 56 58 68 101 114 155 170 183 140 141 140 131 126 148
96 88 82 78 75 73 61 73 74 76 77 86 95 138 154 160 120 117 130 135 135 142
99 105 112 123 101 93 75 75 73 68 79 87 114 144 166 143 112 113 114 127 136 139
87 106 117 118 119 83 98 112 87 83 69 61 55 111 139 153 100 97 109 111 124 110
129 113 98 88 69 55 60 66 70 74 94 103 87 80 139 158 126 102 113 118 128 146

GFSNIL_con_3kmhel_093.txt.gz
Helicity
90 88 115 -13 66 -18 60 32 90 85 109 36 57 43 69 106 62 71 83 104 125 138
95 68 21 96 123 116 90 133 200 108 83 45 79 72 100 66 38 76 88 52 128 171
17 25 21 32 1 15 70 60 49 86 138 41 61 76 71 86 99 109 76 89 81 109
57 56 44 49 57 60 49 55 58 57 49 69 53 53 60 82 77 58 92 106 113 102
45 48 58 65 75 78 73 74 79 86 88 71 61 77 83 76 79 80 82 85 89 81
15 26 49 68 81 74 71 69 75 82 94 112 112 118 123 122 123 113 97 105 103 94
41 41 44 39 43 62 93 116 133 127 108 91 89 97 121 126 124 118 113 109 112 107
62 58 57 58 59 63 68 64 65 88 119 145 156 149 151 133 120 121 127 124 104 112
63 62 62 71 82 86 96 99 100 106 97 93 100 149 185 168 142 147 131 130 133 143
64 70 70 70 77 88 80 67 63 64 75 126 159 190 171 179 117 120 129 126 129 143
80 86 92 92 97 106 88 90 93 86 72 58 69 128 154 185 128 122 114 109 120 123
94 94 89 90 83 56 24 31 46 68 70 57 58 99 111 101 88 110 134 126 112 109
105 123 118 96 74 36 18 13 -1 3 -4 -12 -6 20 52 60 31 49 55 102 123 116
167 154 130 126 119 109 108 91 74 46 20 14 34 25 70 69 9 8 33 35 63 103

GFSNIL_con_3kmhel_096.txt.gz
Helicity
199 72 83 130 33 55 42 75 257 73 72 113 91 94 108 124 111 102 142 142 160 150
129 141 54 21 117 96 87 79 111 175 110 105 99 130 79 93 67 146 98 129 87 59
32 6 21 18 29 21 27 81 104 75 84 114 139 102 61 50 103 107 73 69 -44 -17
30 31 34 34 40 33 36 53 61 57 52 56 89 93 60 44 51 69 79 94 110 106
15 17 33 51 55 57 60 61 60 58 68 80 92 92 89 98 68 67 61 65 64 75
42 54 68 65 60 61 69 89 108 117 123 118 97 81 93 103 118 121 109 104 109 102
4 10 18 31 49 55 59 58 56 51 60 87 121 136 162 155 135 115 113 122 115 100
30 32 33 31 26 31 43 58 80 105 119 103 78 64 72 86 112 135 160 155 126 121
67 64 59 56 54 56 55 55 58 63 61 77 87 138 197 189 139 115 82 93 130 152
66 71 67 59 60 65 65 68 83 80 66 69 67 87 126 142 93 121 156 160 125 111
65 59 50 46 46 42 25 33 22 27 46 65 77 63 59 75 36 53 67 91 120 145
34 48 48 44 31 12 1 -4 -11 -6 2 0 1 64 109 107 61 42 63 66 34 54
93 111 112 99 88 77 83 77 77 70 57 46 56 47 54 66 50 73 94 90 116 136
110 108 95 98 109 105 101 100 89 83 84 78 68 70 74 83 77 61 53 59 71 95

GFSNIL_con_3kmhel_099.txt.gz
Helicity
257 138 98 79 120 166 185 95 97 209 180 95 83 109 108 173 205 105 83 48 14 36
162 135 70 78 36 104 64 57 76 85 154 165 157 248 102 72 117 111 94 103 92 89
57 69 23 25 50 52 59 65 71 78 58 90 81 154 147 119 151 141 97 124 106 125
26 28 25 30 46 44 47 56 57 57 62 86 83 77 44 63 79 42 92 94 77 115
27 33 36 51 52 48 50 59 64 71 79 82 69 73 92 112 123 116 91 65 70 77
36 35 34 36 32 37 39 49 56 67 83 94 97 105 117 117 119 108 115 129 129 122
12 18 26 29 34 27 23 24 27 21 20 31 38 59 87 99 106 114 124 137 147 143
14 14 11 9 5 3 6 6 16 50 70 66 58 49 62 57 64 88 116 129 141 149
31 33 35 35 34 31 33 46 51 54 53 57 51 73 97 109 108 95 73 80 122 155
49 48 40 31 27 28 25 19 25 24 17 22 20 43 77 105 96 110 113 107 108 92
44 28 20 17 13 10 9 10 -1 -1 4 6 11 37 30 39 27 51 104 127 135 140
29 34 43 51 51 43 41 49 48 49 51 52 54 65 74 78 65 50 38 51 108 110
51 67 82 85 83 75 63 52 58 59 70 72 83 80 77 89 95 106 116 122 119 119
78 81 77 78 80 77 74 76 81 84 87 89 87 79 72 81 91 86 86 87 92 94

GFSNIL_con_3kmhel_102.txt.gz
Helicity
7 121 62 127 105 161 103 125 108 131 118 171 198 126 106 72 97 184 166 220 211 152
214 192 151 70 2 27 24 79 134 60 66 63 120 133 196 236 149 48 99 129 107 135
86 123 154 70 38 40 32 39 54 36 88 53 103 113 85 116 158 135 173 183 102 104
10 20 18 29 51 50 52 70 71 63 53 33 38 38 60 61 96 69 70 83 27 124
26 37 41 43 46 46 51 46 46 60 61 61 57 63 68 73 63 70 83 83 51 44
27 26 28 35 36 33 27 30 38 46 49 51 51 55 60 66 80 90 96 94 92 89
32 33 33 30 30 32 34 38 36 27 28 31 31 44 60 68 81 85 87 95 105 107
14 11 10 12 12 8 9 13 21 32 44 45 36 28 42 47 45 54 75 91 96 101
29 38 51 58 56 51 51 48 36 29 33 45 62 99 121 120 116 113 96 74 67 86
56 53 49 41 33 26 19 9 9 9 8 8 13 31 52 61 46 42 55 82 109 129
69 58 49 38 27 30 39 42 47 45 33 31 22 27 34 35 7 1 6 12 14 0
40 21 13 16 30 42 54 65 69 59 51 41 42 41 61 77 68 58 56 47 51 53
57 57 60 65 68 75 75 75 68 61 51 52 65 80 102 114 99 87 86 88 87 84
62 67 67 71 77 79 63 50 44 44 54 65 79 100 111 114 116 112 117 115 111 104

GFSNIL_con_3kmhel_105.txt.gz
Helicity
159 97 198 122 150 154 161 189 182 125 120 89 130 79 257 240 274 149 122 170 235 260
198 266 170 250 84 30 20 22 103 83 59 63 100 16 52 122 167 248 259 156 102 80
100 105 138 92 66 35 40 43 28 42 27 30 45 -7 -55 -52 40 89 118 116 89 125
15 17 20 23 36 52 55 58 71 67 67 42 35 36 15 3 26 31 59 60 64 71
12 14 20 30 37 38 38 41 40 34 35 30 24 30 51 64 51 58 56 56 41 -42
28 30 36 39 39 37 36 35 39 43 44 38 34 40 43 45 50 57 64 66 71 72
38 39 39 40 40 43 46 47 51 53 51 50 51 60 64 63 64 61 64 73 79 81
28 27 24 20 20 20 21 23 31 39 50 56 57 78 61 63 57 55 59 83 98 100
33 36 43 52 59 63 67 73 79 82 81 84 87 99 109 103 84 87 96 90 80 76
64 64 64 57 43 29 22 16 14 11 12 16 26 37 44 52 40 32 34 55 71 88
84 80 75 68 57 50 46 35 33 31 37 48 36 26 11 22 18 23 20 14 4 -1
99 76 51 38 38 39 43 45 48 58 60 62 58 48 55 61 57 48 46 46 50 54
77 75 73 70 73 74 73 74 73 67 54 29 36 -3 36 67 53 39 55 75 74 64
83 77 72 78 85 87 86 83 72 57 55 56 66 85 97 104 118 121 123 115 109 108

GFSNIL_con_3kmhel_108.txt.gz
Helicity
154 131 112 119 118 89 120 276 244 192 149 51 88 72 32 64 62 221 357 436 348 186
56 79 93 95 99 148 241 116 41 22 65 31 -1 -10 -11 -42 111 120 43 193 294 242
45 32 45 61 95 98 50 16 14 21 25 28 16 10 -15 -29 -35 -51 2 41 116 115
9 18 31 35 23 18 23 26 37 50 59 60 68 69 51 36 9 -30 -38 -65 -47 25
16 12 19 22 24 26 28 29 32 39 36 32 38 48 48 54 64 66 64 66 65 62
25 27 30 32 31 28 26 27 29 27 30 34 39 29 52 66 73 73 79 60 65 57
59 56 52 50 50 48 45 45 42 42 41 42 38 53 66 64 67 70 76 83 81 80
58 51 47 42 43 43 45 46 48 52 56 57 56 51 30 8 14 29 44 47 53 63
57 63 66 65 59 64 69 73 69 69 66 61 63 72 77 76 46 56 55 53 51 48
91 81 79 78 77 71 66 61 55 49 44 38 39 44 43 47 49 58 64 65 69 76
107 101 99 98 96 89 79 73 68 64 66 63 56 44 30 35 38 34 32 32 35 46
116 122 123 113 97 85 87 81 81 76 72 69 58 20 12 22 63 44 51 66 74 70
125 130 114 98 91 101 98 91 101 95 92 47 47 19 37 55 54 25 21 49 62 79
123 114 95 99 106 108 103 103 94 78 69 60 56 57 72 76 63 54 44 49 57 62

GFSNIL_con_3kmhel_111.txt.gz
Helicity
77 89 99 109 110 129 105 101 112 129 183 217 163 147 100 46 22 50 38 39 60 146
66 57 58 70 70 54 62 100 161 152 94 84 60 48 36 23 10 10 2 23 53 136
9 10 11 17 17 25 18 26 29 26 23 36 35 38 36 51 33 36 22 -13 -10 -20
18 16 21 36 36 35 34 31 30 33 33 32 39 38 38 50 68 62 58 39 38 52
35 36 38 37 37 37 36 37 36 40 47 52 58 52 62 64 82 83 75 72 61 60
49 43 38 37 35 36 36 36 39 43 50 54 64 59 63 56 68 80 83 78 75 67
47 43 40 41 44 45 42 39 38 40 39 45 49 45 52 60 51 54 62 72 82 77
50 52 52 50 46 47 53 59 60 62 65 66 59 64 64 31 19 38 65 75 69 66
91 86 74 71 74 83 89 83 84 92 88 92 101 117 116 110 74 43 53 69 88 93
91 82 82 86 90 90 87 92 97 98 85 86 92 89 86 81 73 69 69 66 67 77
98 87 92 108 119 115 112 109 96 94 92 87 98 95 90 72 74 70 56 43 46 47
105 108 118 119 119 117 107 108 103 95 91 87 79 68 70 62 43 28 20 37 49 49
106 111 119 133 128 130 125 104 98 87 78 67 73 59 59 63 58 48 44 28 9 6
107 117 123 131 140 121 113 112 101 85 82 74 68 61 72 66 72 69 68 64 61 69

GFSNIL_con_3kmhel_114.txt.gz
Helicity
38 24 21 24 15 33 54 61 89 103 98 108 107 151 137 92 68 63 45 49 69 44
28 29 36 35 34 29 40 35 32 39 61 77 82 58 47 31 14 21 3 2 21 41
30 33 40 48 47 47 38 33 27 27 33 43 48 48 46 59 71 73 76 64 57 47
40 44 43 40 34 32 28 27 27 27 29 37 42 50 61 66 68 72 83 102 105 107
58 57 55 50 45 42 43 41 42 49 56 64 68 66 74 77 88 87 91 98 100 108
65 59 55 49 46 47 48 54 69 80 85 88 97 101 91 87 87 85 85 86 87 85
63 61 59 55 54 52 56 67 74 76 74 71 61 62 70 68 71 71 73 68 85 97
73 75 74 72 67 72 87 95 89 88 95 98 88 91 95 88 66 55 80 97 95 98
89 88 80 78 88 101 107 113 124 129 117 118 122 117 131 121 102 80 68 56 55 80
105 97 90 89 97 104 114 117 116 118 127 130 135 124 117 117 96 90 79 69 55 58
121 104 107 107 111 125 129 130 131 127 127 128 130 135 124 118 98 76 63 58 63 60
120 117 118 120 128 135 139 132 135 127 128 126 116 109 104 85 75 70 64 63 65 67
126 119 118 125 131 141 144 132 137 128 126 105 103 84 66 81 90 91 96 81 74 55
114 111 123 143 157 155 152 144 132 123 109 106 90 67 72 83 111 109 110 105 98 106

GFSNIL_con_3kmhel_117.txt.gz
Helicity
38 36 38 42 42 32 23 23 34 26 20 25 30 34 38 49 78 103 97 83 76 81
44 57 50 53 48 43 41 41 38 26 23 23 30 36 40 31 48 45 49 65 78 73
35 48 59 72 78 69 60 56 54 55 57 61 68 73 83 86 94 109 118 121 126 125
50 63 66 65 56 52 48 48 53 55 61 65 67 71 77 72 76 78 81 88 88 83
70 69 72 71 64 63 63 61 68 83 90 93 92 89 88 93 89 96 97 95 102 110
80 81 76 75 73 64 61 68 86 93 97 93 92 92 93 88 79 83 88 96 102 104
90 92 91 89 81 80 85 95 103 102 93 86 77 79 90 89 86 85 86 85 91 91
114 116 116 107 92 87 95 99 95 103 106 103 98 97 97 96 95 83 77 86 99 97
127 132 125 108 99 103 104 113 127 129 120 117 121 107 119 119 122 107 95 85 79 71
140 140 121 104 103 107 119 135 130 127 125 126 127 122 124 119 134 118 98 75 71 72
160 142 123 114 110 113 126 131 144 146 135 130 126 131 133 126 134 98 81 84 88 93
161 148 128 115 111 123 140 154 160 153 146 134 132 130 114 118 89 80 79 91 100 104
179 156 132 118 124 136 154 155 165 158 157 131 138 108 100 71 82 84 101 111 111 91
170 141 125 134 146 146 152 165 165 165 154 139 116 113 66 58 98 114 118 122 124 145